Starlink 11481

operational
NORAD ID: 62230 Int'l Des: 2024-231 Owner: SPXS Country: US Constellation: starlink
LEOCIRCULAR

关于 Starlink 11481

正在加载描述...

实时位置

正在加载3D地球...

即将过境

高度历史

Altitude vs Time

uPlot chart will show altitude changes over time

两行轨道根数

1 62230U 24231N 25352.87370699 .00239136 00000-0 19176-2 0 9991
2 62230 53.1564 140.0078 0001522 45.7116 314.4027 15.69769943 60717
Epoch: Dec 18, 2025 • Age: 10 hours

当前状态

高度 363.2 km
速度 7.70 km/s
星下点 43.84°N, 84.53°E
发射日期 Dec 5, 2024
运行时间 1 years
类型 internet

技术详情

分类 Payload
质量 960.00 kg
干质量 910.00 kg
总质量 960.00 kg
长度 0.30 m
直径 4.10 m
跨度 29.00 m
形状 Box + pan
制造商 SPXS
平台类型 Starlink V2MD
阶段状态 In Orbit
所有者/国家 SPXS/US

大型星座

Loading constellations...